Weather History for Durango, CO

Change the Weather History Date:

Monday, July 15, 2013

  Actual Average Record
Temperature  
Mean Temperature 69 °F 69 °F  
Max Temperature 80 °F 86 °F 95 °F (2003)
Min Temperature 58 °F 52 °F 46 °F (1982)
Degree Days  
Heating Degree Days 0 0  
Month to date heating degree days 0 8  
Since 1 June heating degree days 40 123  
Since 1 July heating degree days 0 8  
Cooling Degree Days 4 4  
Month to date cooling degree days 105 49  
Year to date cooling degree days 160 78  
Since 1 June cooling degree days 160 77  
Growing Degree Days 18 (Base 50)    
Moisture  
Dew Point 56 °F    
Average Humidity 69    
Maximum Humidity 100    
Minimum Humidity 37    
Precipitation  
Precipitation 0.21 in 0.05 in 0.25 in (1973)
Month to date precipitation 0.91 0.61  
Year to date precipitation 4.68 6.68  
Sea Level Pressure  
Sea Level Pressure 30.03 in    
Wind  
Wind Speed 5 mph (ESE)    
Max Wind Speed 18 mph    
Max Gust Speed 24 mph    
Visibility 10 miles    
Events Rain , Thunderstorm    
T = Trace of Precipitation, MM = Missing Value Source: NWS Daily Summary

Daily Weather History Graph

Daily Weather History Graph

Search for Another Location

Airport:

Trip Planner

Search our weather history database for the weather conditions in past years. The results will help you decide how hot, cold, wet, or windy it might be!

Date:

Astronomy

Jul. 15, 2013 Rise Set
Actual Time 6:03 AM MDT 8:30 PM MDT
Civil Twilight 5:33 AM MDT 9:00 PM MDT
Nautical Twilight 4:55 AM MDT 9:37 PM MDT
Astronomical Twilight 4:14 AM MDT 10:18 PM MDT
Moon 1:14 PM MDT (7/15) No Moon Set
Length of Visible Light 15h 27m
Length of Day
14h 27m
Waxing Crescent, 46% of the Moon is Illuminated
Jul 15
Waxing Crescent
Jul 15
First Quarter
Jul 22
Full
Jul 29
Last Quarter
Aug 6
New

Hourly Weather History & Observations

Time (MDT) Temp. Dew Point Humidity Pressure Visibility Wind Dir Wind Speed Gust Speed Precip Events Conditions
12:53 AM 66.9 °F 55.0 °F 66% 29.96 in 10.0 mi South 8.1 mph - N/A   Scattered Clouds
1:53 AM 64.9 °F 55.0 °F 70% 29.96 in 10.0 mi East 4.6 mph - N/A   Mostly Cloudy
2:53 AM 64.0 °F 55.9 °F 75% 29.97 in 10.0 mi East 4.6 mph - N/A   Overcast
3:53 AM 62.1 °F 55.9 °F 80% 29.99 in 10.0 mi ENE 5.8 mph - N/A   Partly Cloudy
4:53 AM 61.0 °F 55.9 °F 83% 30.01 in 10.0 mi East 3.5 mph - N/A   Clear
5:53 AM 59.0 °F 55.9 °F 90% 29.99 in 10.0 mi ENE 5.8 mph - N/A   Partly Cloudy
6:53 AM 61.0 °F 57.0 °F 87% 29.99 in 10.0 mi Calm Calm - N/A   Partly Cloudy
7:53 AM 64.0 °F 55.9 °F 75% 29.99 in 10.0 mi Calm Calm - N/A   Overcast
8:53 AM 68.0 °F 55.9 °F 65% 29.97 in 10.0 mi SE 3.5 mph - N/A   Scattered Clouds
9:53 AM 73.0 °F 53.1 °F 49% 29.96 in 10.0 mi Calm Calm - N/A   Clear
10:53 AM 77.0 °F 53.1 °F 43% 29.94 in 10.0 mi Variable 6.9 mph - N/A   Overcast
11:53 AM 78.1 °F 50.0 °F 37% 29.90 in 10.0 mi Variable 4.6 mph - N/A   Clear
12:53 PM 77.0 °F 51.1 °F 40% 29.91 in 10.0 mi WSW 8.1 mph - N/A   Overcast
1:17 PM 75.2 °F 53.6 °F 47% 30.19 in 8.0 mi West 8.1 mph - 0.00 in Rain , Thunderstorm Rain
1:53 PM 73.9 °F 54.0 °F 50% 29.92 in 10.0 mi West 15.0 mph 23.0 mph 0.01 in Thunderstorm Scattered Clouds
2:07 PM 73.4 °F 53.6 °F 50% 30.19 in 10.0 mi WSW 17.3 mph 24.2 mph N/A   Mostly Cloudy
2:27 PM 69.8 °F 55.4 °F 60% 30.19 in 10.0 mi WSW 9.2 mph - 0.00 in Rain , Thunderstorm Light Rain
2:53 PM 70.0 °F 55.0 °F 59% 29.96 in 10.0 mi SE 9.2 mph 17.3 mph 0.00 in Thunderstorm Overcast
3:53 PM 66.0 °F 59.0 °F 78% 29.98 in 5.0 mi Calm Calm - 0.03 in Rain , Thunderstorm Light Rain
4:07 PM 66.2 °F 60.8 °F 83% 30.20 in 9.0 mi NE 5.8 mph - 0.00 in Rain Light Rain
4:53 PM 66.9 °F 60.1 °F 79% 29.98 in 10.0 mi ENE 10.4 mph - 0.01 in   Mostly Cloudy
5:53 PM 63.0 °F 60.1 °F 90% 30.01 in 8.0 mi NE 10.4 mph - 0.03 in Rain Light Rain
6:53 PM 61.0 °F 59.0 °F 93% 30.02 in 4.0 mi Calm Calm - 0.11 in Rain Light Rain
7:53 PM 61.0 °F 60.1 °F 97% 30.01 in 10.0 mi SE 5.8 mph - 0.01 in   Partly Cloudy
8:53 PM 61.0 °F 59.0 °F 93% 30.00 in 10.0 mi ESE 4.6 mph - N/A   Clear
9:53 PM 61.0 °F 60.1 °F 97% 30.01 in 10.0 mi East 4.6 mph - N/A   Overcast
10:36 PM 60.8 °F 59.0 °F 94% 30.27 in 10.0 mi Calm Calm - N/A   Overcast
10:53 PM 61.0 °F 59.0 °F 93% 30.01 in 10.0 mi Calm Calm - N/A   Overcast
11:38 PM 60.8 °F 59.0 °F 94% 30.27 in 10.0 mi Calm Calm - 0.01 in Rain Light Rain
11:53 PM 60.1 °F 57.0 °F 90% 30.01 in 10.0 mi ESE 3.5 mph - 0.01 in Rain Light Rain